Weather History for CYTZ - October, 2013

Change the Weather History Date:

Friday, October 4, 2013

  Actual Average Record
Temperature  
Mean Temperature 61 °F -  
Max Temperature 62 °F 55 °F 73 °F (2002)
Min Temperature 60 °F 43 °F 39 °F (1996)
Degree Days  
Heating Degree Days 4    
Growing Degree Days 11 (Base 50)    
Moisture  
Dew Point 58 °F    
Average Humidity 89    
Maximum Humidity 94    
Minimum Humidity 76    
Precipitation  
Precipitation 0.24 in 0.08 in - ()
Sea Level Pressure  
Sea Level Pressure 30.01 in    
Wind  
Wind Speed 9 mph ()    
Max Wind Speed 20 mph    
Max Gust Speed 23 mph    
Visibility 8.3 miles    
Events Rain , Thunderstorm    
Averages and records for this station are not official NWS values.
T = Trace of Precipitation, MM = Missing Value Source: Averaged Metar Reports

Daily Weather History Graph

Daily Weather History Graph

Search for Another Location

Airport or City:

Trip Planner

Search our weather history database for the weather conditions in past years. The results will help you decide how hot, cold, wet, or windy it might be!

Date:

Astronomy

Oct. 04, 2013 Rise Set
Actual Time 7:18 AM EDT 6:52 PM EDT
Civil Twilight 6:50 AM EDT 7:21 PM EDT
Nautical Twilight 6:17 AM EDT 7:54 PM EDT
Astronomical Twilight 5:43 AM EDT 8:27 PM EDT
Moon 6:52 AM EDT (10/4) 6:33 PM EDT (10/4)
Length of Visible Light 12h 31m
Length of Day
11h 33m
Waning Crescent, 0% of the Moon is Illuminated
Oct 4
Waning Crescent
Oct 4
New
Oct 11
First Quarter
Oct 18
Full
Oct 26
Last Quarter

Hourly Weather History & Observations

Time (EDT) Temp. Dew Point Humidity Pressure Visibility Wind Dir Wind Speed Gust Speed Precip Events Conditions
1:00 AM 64.4 °F 57.2 °F 77% 30.00 in 9.0 mi ENE 12.7 mph - N/A   Overcast
1:03 AM 64.4 °F 57.2 °F 77% 30.01 in 9.0 mi East 10.4 mph - N/A Rain Light Rain
1:29 AM 62.6 °F 59.0 °F 88% 30.00 in 9.0 mi ENE 11.5 mph - N/A   Overcast
1:35 AM 62.6 °F 59.0 °F 88% 30.00 in 9.0 mi ENE 11.5 mph - N/A Rain Light Rain
2:00 AM 62 °F 60 °F 89% 30.00 in 10 mi ENE 10.4 mph - - Rain Light Rain
2:00 AM 62.6 °F 59.0 °F 88% 30.00 in 9.0 mi ENE 10.4 mph - N/A Rain Light Rain
2:34 AM 62.6 °F 59.0 °F 88% 30.00 in 5.0 mi ENE 6.9 mph - N/A Rain Light Rain
3:00 AM 62.6 °F 59.0 °F 88% 29.99 in 4.0 mi ENE 9.2 mph - N/A Rain Light Rain
3:09 AM 62.6 °F 59.0 °F 88% 29.99 in 6.0 mi ENE 10.4 mph - N/A Rain Light Rain
3:23 AM 62.6 °F 59.0 °F 88% 29.99 in 9.0 mi ENE 9.2 mph - N/A   Overcast
3:25 AM 62.6 °F 59.0 °F 88% 29.99 in 9.0 mi ENE 9.2 mph - N/A   Overcast
3:35 AM 62.6 °F 59.0 °F 88% 29.99 in 9.0 mi ENE 5.8 mph - N/A   Overcast
3:51 AM 62.6 °F 59.0 °F 88% 29.99 in 9.0 mi East 5.8 mph - N/A   Overcast
3:53 AM 62.6 °F 59.0 °F 88% 29.99 in 9.0 mi East 3.5 mph - N/A Rain Light Rain
4:00 AM 62.6 °F 59.0 °F 88% 29.99 in 7.0 mi East 5.8 mph - N/A Rain Light Rain
4:03 AM 60.8 °F 59.0 °F 94% 29.99 in 5.0 mi East 5.8 mph - N/A Rain Light Rain
4:12 AM 60.8 °F 59.0 °F 94% 29.99 in 6.0 mi East 4.6 mph - N/A Rain Light Rain
4:15 AM 60.8 °F 59.0 °F 94% 29.99 in 9.0 mi East 4.6 mph - N/A Rain Light Rain
4:20 AM 60.8 °F 59.0 °F 94% 29.99 in 9.0 mi SE 3.5 mph - N/A   Overcast
4:24 AM 60.8 °F 59.0 °F 94% 29.99 in 9.0 mi SE 4.6 mph - N/A   Overcast
4:59 AM 60.8 °F 57.2 °F 88% 29.98 in 9.0 mi East 4.6 mph - N/A Rain Light Rain
5:00 AM 60.8 °F 57.2 °F 88% 29.98 in 9.0 mi East 4.6 mph - N/A Rain Light Rain
5:24 AM 60.8 °F 59.0 °F 94% 29.99 in 9.0 mi SE 4.6 mph - N/A   Overcast
5:39 AM 60.8 °F 59.0 °F 94% 29.98 in 9.0 mi East 4.6 mph - N/A   Overcast
6:00 AM 60.8 °F 57.2 °F 88% 29.99 in 9.0 mi East 4.6 mph - N/A   Overcast
6:04 AM 60.8 °F 59.0 °F 94% 29.99 in 9.0 mi East 3.5 mph - N/A   Overcast
6:57 AM 60.8 °F 59.0 °F 94% 30.00 in 9.0 mi SE 2.3 mph - N/A   Overcast
7:00 AM 60.8 °F 59.0 °F 94% 30.00 in 9.0 mi Variable 2.3 mph - N/A   Overcast
7:13 AM 60.8 °F 59.0 °F 94% 30.01 in 9.0 mi Calm Calm - N/A Rain Light Rain
7:21 AM 60.8 °F 59.0 °F 94% 30.01 in 4.0 mi Calm Calm - N/A Rain Rain
7:28 AM 60.8 °F 59.0 °F 94% 30.01 in 2.2 mi Calm Calm - N/A Rain Rain
7:38 AM 60.8 °F 59.0 °F 94% 30.01 in 3.0 mi ENE 2.3 mph - N/A Rain Light Rain
7:44 AM 60.8 °F 59.0 °F 94% 30.01 in 6.0 mi ESE 5.8 mph - N/A Rain Light Rain
8:00 AM 61 °F 59 °F 91% 30.01 in 10 mi East 5.8 mph - - Rain Light Rain
8:00 AM 60.8 °F 59.0 °F 94% 30.00 in 9.0 mi ENE 5.8 mph - N/A Rain Light Rain
8:27 AM 62.6 °F 59.0 °F 88% 30.00 in 9.0 mi ENE 13.8 mph - N/A   Overcast
8:30 AM 62.6 °F 59.0 °F 88% 30.00 in 9.0 mi ENE 12.7 mph - N/A   Overcast
8:46 AM 62.6 °F 59.0 °F 88% 30.01 in 9.0 mi ENE 11.5 mph - N/A Rain Light Rain
8:56 AM 62.6 °F 59.0 °F 88% 30.03 in 9.0 mi NE 9.2 mph - N/A Rain Light Rain
9:00 AM 62.6 °F 59.0 °F 88% 30.03 in 7.0 mi NE 8.1 mph - N/A Rain Light Rain
9:12 AM 62.6 °F 59.0 °F 88% 30.03 in 9.0 mi ENE 9.2 mph - N/A Rain Light Rain
9:22 AM 62.6 °F 59.0 °F 88% 30.02 in 5.0 mi East 13.8 mph - N/A Rain Light Rain
9:36 AM 62.6 °F 59.0 °F 88% 30.01 in 6.0 mi ENE 13.8 mph - N/A Rain Light Rain
9:52 AM 60.8 °F 59.0 °F 94% 30.02 in 9.0 mi ENE 12.7 mph - N/A   Mostly Cloudy
10:00 AM 60.8 °F 59.0 °F 94% 30.02 in 9.0 mi ENE 15.0 mph - N/A   Overcast
10:39 AM 60.8 °F 59.0 °F 94% 30.03 in 9.0 mi ENE 13.8 mph - N/A Thunderstorm Overcast
10:55 AM 60.8 °F 59.0 °F 94% 30.03 in 9.0 mi ENE 16.1 mph - N/A   Overcast
11:00 AM 60.8 °F 59.0 °F 94% 30.03 in 9.0 mi ENE 16.1 mph - N/A   Overcast
12:00 PM 60.8 °F 59.0 °F 94% 30.04 in 9.0 mi East 15.0 mph 23.0 mph N/A   Overcast
1:00 PM 60.8 °F 57.2 °F 88% 30.03 in 9.0 mi ENE 18.4 mph - N/A   Overcast
1:02 PM 60.8 °F 57.2 °F 88% 30.03 in 9.0 mi ENE 18.4 mph - N/A Rain Light Rain
1:08 PM 60.8 °F 59.0 °F 94% 30.03 in 9.0 mi ENE 19.6 mph - N/A Rain Light Rain
1:40 PM 60.8 °F 59.0 °F 94% 30.02 in 9.0 mi ENE 18.4 mph - N/A   Overcast
2:00 PM 61 °F 58 °F 85% 30.03 in 10 mi ENE 17.3 mph - -   Clear
2:00 PM 60.8 °F 57.2 °F 88% 30.02 in 9.0 mi ENE 18.4 mph - N/A   Overcast
3:00 PM 60.8 °F 55.4 °F 82% 30.02 in 9.0 mi ENE 17.3 mph - N/A   Overcast
4:00 PM 62.6 °F 55.4 °F 77% 30.03 in 9.0 mi ENE 16.1 mph - N/A   Overcast
5:00 PM 62.6 °F 55.4 °F 77% 30.02 in 9.0 mi East 13.8 mph 20.7 mph N/A   Overcast
6:00 PM 60.8 °F 55.4 °F 82% 30.04 in 9.0 mi ENE 15.0 mph - N/A   Overcast
7:00 PM 60.8 °F 57.2 °F 88% 30.04 in 9.0 mi ENE 17.3 mph - N/A   Overcast
8:00 PM 62 °F 56 °F 76% 30.06 in 10 mi ENE 15.0 mph - -   Overcast
8:00 PM 62.6 °F 55.4 °F 77% 30.06 in 9.0 mi ENE 15.0 mph - N/A   Overcast
9:00 PM 62.6 °F 57.2 °F 82% 30.07 in 9.0 mi ENE 13.8 mph - N/A   Overcast
10:00 PM 62.6 °F 57.2 °F 82% 30.08 in 9.0 mi ENE 12.7 mph - N/A   Overcast
11:00 PM 60.8 °F 55.4 °F 82% 30.08 in 9.0 mi ENE 13.8 mph - N/A   Overcast